User: anonymous   Login
Location: Hartman Creek State Park
(44.3257°N, 89.2134°W)
Time: 14:52:08
(UTC-05:00)
Language:

BREEZE-M DEB (TANK) - Orbit

View from above orbital plane
View from above orbital plane
View from above satellite
View from above satellite

Ground track
Ground track

The orbit data is extracted from the following two-line orbital elements,

1 29649U 06056B   18145.58849737  .00000184  00000-0  41394-4 0  9995
2 29649  49.5420 342.3665 5382848  15.9212 355.9932  5.00753269204899
Epoch (UTC): 25 May 2018 14:07:26
Eccentricity: 0.5382848
inclination: 49.5420°
perigee height: 285 km
apogee height: 15822 km
right ascension of ascending node: 342.3665°
argument of perigee: 15.9212°
revolutions per day: 5.00753269
mean anomaly at epoch: 355.9932°
orbit number at epoch: 20489

The dashed part of the orbit path shows where the satellite is in the earth's shadow,  

DLR